{"data":{"norad_id":61002,"intl_designator":"2024-158N","name":"STARLINK-11288 [DTC]","alt_names":[],"object_type":"PAYLOAD","status":"ACTIVE","operator":null,"country":"US","launch_date":"2024-09-05","launch_site_code":"AFETR","launch_vehicle":null,"mission":null,"orbit_class":"UNKNOWN","rcs_meters":null,"size_class":null,"mass_kg":null,"dimensions":null,"purposes":["comms"],"wikipedia_slug":null,"has_3d_model":false,"image_url":null,"decayed_at":null,"tle_current":{"epoch":"2026-05-24T16:35:20.008320Z","epoch_age_seconds":91901,"freshness":"FRESH","line1":"1 61002U 24158N   26144.69120380  .00000758  00000+0  11117-4 0  9999","line2":"2 61002  53.1597 266.4468 0000992  72.7488 287.3639 15.69707257 99525","mean_motion":15.69707257,"eccentricity":9.92e-5,"inclination_deg":53.1597,"raan_deg":266.4468,"arg_perigee_deg":72.7488,"mean_anomaly_deg":287.3639,"bstar":1.1117e-5,"rev_number":9952,"period_min":91.736850522823,"perigee_km":359.06620298454,"apogee_km":360.40299670995,"semimajor_km":6737.8715998472,"source":"CELESTRAK","updated_at":"2026-05-25T13:38:19.324854Z"}}}